Find Local Weather

World > North America > United States > New Hampshire

New Castle, New Hampshire Regional Weather

Lat: 43.07N, Lon: 70.72W
Wx Zone: NHZ014
Warning FLW WEATHER ALERT - WINTER STORM WATCH (More Info. Click Here) Warning
Feedback
Expires:201901170900;;479784
ASUS41 KBOX 170810
RWRBOX

REGIONAL WEATHER ROUNDUP
NATIONAL WEATHER SERVICE BOSTON/NORTON MA
300 AM EST THU JAN 17 2019

NOTE:  "FAIR" INDICATES FEW OR NO CLOUDS BELOW 12,000 FEET WITH NO 
SIGNIFICANT WEATHER AND/OR OBSTRUCTIONS TO VISIBILITY.


MEZ002-015-021-024-NHZ003-005-008-011-012-014-VTZ005-008-170900-
NORTHERN NEW ENGLAND
  
CITY           SKY/WX    TMP DP  RH WIND       PRES   REMARKS
PORTLAND ME    FAIR      15   0  51 NW12      30.24R WCI   2          
BANGOR ME      FAIR       8  -6  52 NW14      30.21R WCI  -8          
CONCORD NH     FAIR      12  -1  56 NW10      30.28R WCI  -1          
MANCHESTER NH  FAIR      17   1  49 N10       30.27R WCI   5          
NASHUA NH      FAIR      18   4  54 N8        30.28R WCI   8          
PORTSMOUTH NH  PTCLDY    16  -6  37 W13       30.25R WCI   2          
JAFFREY NH     FAIR      15   1  53 CALM      30.21R                  
KEENE NH       FAIR      14   2  58 N9        30.28R WCI   2          
BURLINGTON VT  MOCLDY     5  -5  63 CALM      30.35R                  
MT. WASHINGTON PTCLDY   -15 -20  76 NW70        N/A  WCI -57          
$$


SKY/WX - Weather  TMP - Temperature  DP - Dew Point  RH - Relative Humidity
WIND - Wind Direction/Speed PRES - Barometric Pressure